Powrót do katalogu

USA 549

AktywnyNawigacjaSSO
NORAD 65075·PAYLOAD·🇺🇸 United States

Wystrzelony Jul 31, 2025 z Vandenberg Space Force Base

Loading…

Następne Przeloty (najbliższe 24 godziny)

TLE

NieaktualneSource: Mike McCants

Epoka: Aug 21, 2026, 22:16 UTC

1 65075U 25165V   26233.92796340 0.00000000  00000-0  00000-0 0    01
2 65075  97.6024 326.8652 0001540 286.1714  73.8284 15.40354712    08

Śledź USA 549 w czasie rzeczywistym z AllMySat

Download on the App Store